[[[{"header":{"parameterUnit":"kt","parameterCategory":2,"dx":1,"dy":1,"la1":30.253999710083008,"la2":30.299108505249023,"lo1":-89.0895004272461,"lo2":-89.04439544677734,"nx":28,"ny":28,"refTime":"2022-09-27T21:00:00:Z","depth":0,"parameterNumber":1,"parameterNumberName":"U-component_of_WINDS"},"data":[-5.0433,-5.0586,-5.0571,-5.0738,-5.0752,-5.0863,-5.0897,-5.0939,-5.0969,-5.1097,-5.1168,-5.1167,-5.1189,-5.1268,-5.1342,-5.134,-5.1374,-5.1438,-5.1424,-5.115,-5.1111,-5.1073,-5.1037,-5.1445,-5.1445,-5.1712,-5.1714,-5.1716,-5.0229,-5.0245,-5.0329,-5.0401,-5.0472,-5.0399,-5.0449,-5.0514,-5.0615,-5.0652,-5.0721,-5.0833,-5.0918,-5.0918,-5.0997,-5.1066,-5.1037,-5.1089,-5.1085,-5.109,-5.0795,-5.0757,-5.1111,-5.1111,-5.1111,-5.1111,-5.1111,-5.1111,-4.9854,-4.9947,-4.9981,-5.0072,-5.0104,-5.0151,-5.0236,-5.0233,-5.0314,-5.0397,-5.0362,-5.0475,-5.0508,-5.0596,-5.0621,-5.0708,-5.0648,-5.07,-5.0713,-5.0728,-5.0746,-5.0365,-5.072,-5.0719,-5.0718,-5.0717,-5.0716,0,-4.9575,-4.9557,-4.9637,-4.9713,-4.9778,-4.9835,-4.9884,-4.9936,-4.989,-4.9959,-5.0057,-5.0111,-5.0216,-5.0306,-5.0377,-5.0392,-5.0326,-5.0316,-5.0352,-5.0373,-5.0382,-5.0381,-4.9902,-5.0307,-5.0304,-5.0301,-5.0299,-5.0298,-4.9198,-4.9308,-4.9337,-4.9395,-4.9419,-4.9514,-4.9566,-4.9517,-4.9576,-4.9628,-4.9712,-4.9801,-4.9871,-5.003,-5.0025,-5.0103,-5.0072,-5.0229,-5.0084,-5.0098,-5.0077,-5.0072,-5.0083,-5.0259,-5.0264,-5.0268,-5.0272,0,-4.8987,-4.8962,-4.9128,-4.9145,-4.9153,-4.927,-4.9285,-4.9374,-4.9362,-4.9484,-4.9509,-4.949,-4.9587,-4.9557,-4.9661,-4.9643,-4.9833,-4.9799,-4.982,-4.9813,-4.9951,-4.994,-5.0403,-5.0461,-5.0036,-5.004,-5.0043,0,-4.8657,-4.8803,-4.8757,-4.8855,-4.9015,-4.8962,-4.9122,-4.9127,-4.9157,-4.9252,-4.9171,-4.9262,-4.9209,-4.9295,-4.9268,-4.9417,-4.9437,-4.9432,-4.9424,-4.9442,-4.9443,-4.9474,-4.9456,-4.9398,-4.9396,-4.9393,-4.9392,0,-4.8332,-4.8478,-4.8636,-4.8666,-4.87,-4.8775,-4.8793,-4.8825,-4.8878,-4.8941,-4.8975,-4.9051,-4.9094,-4.9154,-4.9119,-4.9022,-4.9301,-4.9161,-4.9297,-4.9298,-4.9363,-4.9361,-4.9774,-4.9389,-4.9388,-4.9387,-4.9386,0,-4.8063,-4.8129,-4.8361,-4.8388,-4.8428,-4.8532,-4.8605,-4.8687,-4.8727,-4.8717,-4.8766,-4.871,-4.8838,-4.87,-4.8876,-4.876,-4.8806,-4.8813,-4.8822,-4.8835,-4.8683,-4.8924,-4.9319,-4.9361,-4.8841,-4.8837,-4.8833,0,-4.7698,-4.7926,-4.7884,-4.8105,-4.8207,-4.811,-4.8223,-4.8262,-4.8258,-4.8343,-4.8337,-4.8434,-4.8325,-4.8352,-4.8442,-4.8441,-4.8592,-4.8419,-4.8542,-4.8547,-4.8537,-4.8899,-4.8968,-4.9235,-4.8774,-4.878,-4.8785,0,-4.7413,-4.7455,-4.7499,-4.753,-4.7575,-4.766,-4.779,-4.7875,-4.7934,-4.7986,-4.8095,-4.8229,-4.8153,-4.8198,-4.8161,-4.8257,-4.8488,-4.8163,-4.8163,-4.8224,-4.8742,-4.8805,-4.8851,-4.8441,-4.8448,-4.8454,-4.8738,0,-4.7015,-4.7126,-4.724,-4.7315,-4.7375,-4.7512,-4.7483,-4.7549,-4.7507,-4.7501,-4.7659,-4.7685,-4.7772,-4.7815,-4.7775,-4.8004,-4.7962,-4.788,-4.7748,-4.7985,-4.8078,-4.8116,-4.7611,-4.7607,-4.7604,-4.7601,0,0,-4.6674,-4.6833,-4.6784,-4.691,-4.6959,-4.6858,-4.7007,-4.7042,-4.7117,-4.7152,-4.7077,-4.7272,-4.7298,-4.7493,-4.7565,-4.76,-4.7638,-4.7558,-4.7872,-4.7902,-4.793,-4.803,-4.807,-4.7595,-4.7593,-4.7592,-4.7591,0,-4.6524,-4.6552,-4.67,-4.6734,-4.6784,-4.677,-4.6805,-4.6837,-4.684,-4.6995,-4.6911,-4.7002,-4.7161,-4.7198,-4.7238,-4.7531,-4.7464,-4.756,-4.7728,-4.7838,-4.7873,-4.7904,-4.8009,-4.8048,-4.7583,-4.7583,-4.7584,0,-4.624,-4.6263,-4.6332,-4.6438,-4.6469,-4.6577,-4.6429,-4.6549,-4.6628,-4.6513,-4.6669,-4.668,-4.6728,-4.6917,-4.7,-4.6935,-4.7308,-4.7185,-4.7206,-4.7216,-4.732,-4.7362,-4.74,-4.6907,-4.6905,-4.6903,0,0,-4.6114,-4.6218,-4.6228,-4.6403,-4.6429,-4.6411,-4.6465,-4.643,-4.6476,-4.6495,-4.6508,-4.6555,-4.6646,-4.6708,-4.6792,-4.7003,-4.701,-4.7103,-4.7135,-4.7161,-4.7185,-4.7297,-4.7338,-4.6895,-4.6895,-4.6894,0,0,-4.6054,-4.6074,-4.6025,-4.6224,-4.627,-4.6293,-4.6401,-4.6341,-4.6414,-4.6396,-4.6342,-4.6352,-4.6528,-4.6543,-4.6433,-4.6745,-4.6614,-4.6639,-4.673,-4.677,-4.6801,-4.6795,-4.6288,0,0,0,0,0,-4.5887,-4.6071,-4.6026,-4.6055,-4.619,-4.6318,-4.6335,-4.6295,-4.6202,-4.6289,-4.629,-4.6214,-4.6472,-4.6374,-4.6404,-4.6528,-4.6786,-4.6806,-4.6824,-4.699,-4.7032,-4.7067,0,0,0,0,0,0,-4.5898,-4.5934,-4.6021,-4.6052,-4.6082,-4.6311,-4.6146,-4.614,-4.6192,-4.6176,-4.6216,-4.6215,-4.6184,-4.6356,-4.6383,-4.6502,-4.6278,-4.6794,-4.681,-4.6825,-4.7004,-4.7038,-4.7068,0,0,0,0,0,-4.5907,-4.5936,-4.6162,-4.6049,-4.6075,-4.6066,-4.6139,-4.6132,-4.6172,-4.6176,-4.6172,-4.6138,-4.6188,-4.6208,-4.6372,-4.6491,-4.6259,-4.627,-4.6804,-4.6817,-4.6829,-4.7021,0,0,0,0,0,0,-4.5913,-4.5931,-4.6167,-4.6173,-4.5977,-4.6052,-4.6063,-4.6126,-4.6168,-4.6167,-4.6094,-4.608,-4.6194,-4.6208,-4.6224,-4.6489,-4.6244,-4.6254,-4.6261,-4.6814,-4.6824,-4.6833,0,0,0,0,0,0,-4.5915,-4.5937,-4.617,-4.6081,-4.6077,-4.604,-4.605,-4.6183,-4.617,-4.6083,-4.6073,-4.6087,-4.6169,-4.6209,-4.6221,-4.6431,-4.6232,-4.6242,-4.6249,-4.6253,-4.6822,-4.683,0,0,0,0,0,0,-4.5924,-4.5943,-4.6079,-4.6076,-4.6072,-4.614,-4.6157,-4.6297,-4.6094,-4.6083,-4.6075,-4.6066,-4.6173,-4.6184,-4.622,-4.6425,-4.6429,-4.6232,-4.6239,-4.6244,-4.6247,0,0,0,0,0,0,0,-4.5931,-4.5814,-4.6129,-4.6072,-4.6068,-4.6232,-4.6233,-4.6235,-4.6092,-4.6085,-4.6077,-4.607,-4.6174,-4.6185,-4.6196,-4.642,0,0,-4.6231,-4.6236,0,0,0,0,0,0,0,0,-4.5805,-4.5811,-4.6129,-4.6131,-4.6132,-4.6232,-4.6233,-4.6235,-4.6091,-4.6085,-4.6078,-4.6073,-4.6177,-4.6186,-4.6195,0,0,0,0,0,0,0,0,0,0,0,0,0,0,0,-4.6129,-4.613,0,-4.6232,-4.6233,-4.6234,-4.609,-4.6085,-4.608,-4.6075,-4.6179,-4.6187,-4.6194,0,0,0,0,0,0,0,0,0,0,0,0,0,0,0,0,0,0,0,0,0,0,0,0,0,0,0,0,0,0,0,0,0,0,0,0,0,0,0,0,0,0,0,0,0,0,0,0,0,0,0,0,0,0,0,0,0,0,0,0,0,0,0,0,0,0,0,0,0]}],[{"header":{"parameterUnit":"kt","parameterCategory":2,"dx":1,"dy":1,"la1":30.253999710083008,"la2":30.299108505249023,"lo1":-89.0895004272461,"lo2":-89.04439544677734,"nx":28,"ny":28,"refTime":"2022-09-27T21:00:00:Z","depth":0,"parameterNumber":2,"parameterNumberName":"V-component_of_WINDS"},"data":[-18.9676,-18.999,-18.9963,-19.0306,-19.0338,-19.0566,-19.0637,-19.0725,-19.0786,-19.1049,-19.1194,-19.1192,-19.1236,-19.1397,-19.1548,-19.1541,-19.1608,-19.1741,-19.1711,-19.1147,-19.1066,-19.0989,-19.0915,-19.1756,-19.1757,-19.2299,-19.2304,-19.2308,-18.9266,-18.9303,-18.9477,-18.9626,-18.9773,-18.9629,-18.9732,-18.9863,-19.0068,-19.0146,-19.0286,-19.0513,-19.0685,-19.0683,-19.0842,-19.0981,-19.0919,-19.1027,-19.1015,-19.1024,-19.042,-19.0342,-19.1074,-19.1074,-19.1074,-19.1074,-19.1074,-19.1074,-18.8511,-18.8701,-18.8775,-18.8962,-18.9028,-18.9126,-18.93,-18.9295,-18.946,-18.9627,-18.9555,-18.9784,-18.985,-19.0024,-19.0072,-19.0246,-19.012,-19.0225,-19.0252,-19.028,-19.0317,-18.9539,-19.027,-19.0268,-19.0266,-19.0264,-19.0263,0,-18.7949,-18.7913,-18.8077,-18.8235,-18.8368,-18.8485,-18.8585,-18.8691,-18.8594,-18.8734,-18.8933,-18.9041,-18.9252,-18.9431,-18.957,-18.9597,-18.9455,-18.9436,-18.9508,-18.9548,-18.9567,-18.956,-18.8578,-18.9414,-18.9407,-18.9401,-18.9397,-18.9394,-18.7186,-18.741,-18.7471,-18.759,-18.7638,-18.7831,-18.7938,-18.7836,-18.7954,-18.8058,-18.8227,-18.8406,-18.8544,-18.8862,-18.8844,-18.9,-18.8931,-18.9255,-18.8953,-18.8983,-18.8936,-18.8924,-18.8945,-18.9315,-18.9326,-18.9334,-18.934,0,-18.6758,-18.6708,-18.7045,-18.708,-18.7096,-18.7335,-18.7361,-18.7543,-18.7515,-18.776,-18.7811,-18.7766,-18.796,-18.789,-18.8095,-18.8052,-18.8436,-18.8365,-18.8413,-18.8395,-18.8678,-18.8652,-18.9606,-18.9725,-18.8852,-18.8861,-18.8868,0,-18.6086,-18.6384,-18.629,-18.6489,-18.6814,-18.6704,-18.7027,-18.7035,-18.7091,-18.7283,-18.7111,-18.7294,-18.7175,-18.7347,-18.7284,-18.7585,-18.7623,-18.7607,-18.7587,-18.7624,-18.7626,-18.7682,-18.7641,-18.7532,-18.7527,-18.7523,-18.7519,0,-18.5423,-18.572,-18.6041,-18.61,-18.6166,-18.6318,-18.6351,-18.6412,-18.6517,-18.664,-18.6706,-18.6856,-18.6939,-18.7056,-18.6974,-18.6773,-18.7341,-18.7046,-18.7324,-18.7327,-18.7454,-18.7447,-18.831,-18.7513,-18.7512,-18.751,-18.7508,0,-18.4871,-18.5005,-18.5479,-18.5528,-18.5609,-18.5819,-18.5962,-18.6126,-18.6202,-18.6177,-18.6272,-18.6147,-18.6405,-18.6118,-18.647,-18.6231,-18.6321,-18.6329,-18.6348,-18.6366,-18.6047,-18.6543,-18.7372,-18.7456,-18.6383,-18.6374,-18.6366,0,-18.4126,-18.459,-18.4498,-18.4949,-18.5153,-18.4947,-18.5177,-18.525,-18.5235,-18.5402,-18.5381,-18.5572,-18.5343,-18.5392,-18.5576,-18.5562,-18.5873,-18.5518,-18.5754,-18.5764,-18.5743,-18.6504,-18.6646,-18.7199,-18.6245,-18.6257,-18.6267,0,-18.3541,-18.362,-18.3708,-18.3769,-18.3851,-18.402,-18.4284,-18.445,-18.4566,-18.4666,-18.4883,-18.5147,-18.4985,-18.5068,-18.4981,-18.5177,-18.5659,-18.4975,-18.4975,-18.5101,-18.6178,-18.6311,-18.6404,-18.5557,-18.5572,-18.5583,-18.6171,0,-18.272,-18.2944,-18.3177,-18.3319,-18.3439,-18.3716,-18.3644,-18.3778,-18.3684,-18.3661,-18.3978,-18.4016,-18.4181,-18.4267,-18.4176,-18.4646,-18.4555,-18.438,-18.4094,-18.4595,-18.4786,-18.4864,-18.3815,-18.3806,-18.3799,-18.3792,0,0,-18.2019,-18.2339,-18.2229,-18.2484,-18.2577,-18.2358,-18.2661,-18.2725,-18.2861,-18.2929,-18.2769,-18.3149,-18.3187,-18.3579,-18.3729,-18.3796,-18.3872,-18.37,-18.4357,-18.442,-18.4479,-18.4685,-18.4768,-18.3779,-18.3776,-18.3774,-18.3771,0,-18.1704,-18.1756,-18.2058,-18.2121,-18.221,-18.2171,-18.2245,-18.2292,-18.2291,-18.2602,-18.2413,-18.2593,-18.2899,-18.2964,-18.3037,-18.3651,-18.3497,-18.3706,-18.4062,-18.4284,-18.4358,-18.4422,-18.464,-18.472,-18.3753,-18.3754,-18.3755,0,-18.1115,-18.1153,-18.1292,-18.1496,-18.1551,-18.1765,-18.1449,-18.1688,-18.1844,-18.1586,-18.1898,-18.1909,-18.1989,-18.2369,-18.2536,-18.2395,-18.316,-18.2904,-18.2949,-18.2966,-18.3177,-18.3265,-18.3344,-18.2309,-18.2304,-18.23,0,0,-18.0853,-18.106,-18.1066,-18.1423,-18.1471,-18.1418,-18.1523,-18.144,-18.1519,-18.1552,-18.1563,-18.1644,-18.1819,-18.1938,-18.2098,-18.2527,-18.2533,-18.273,-18.2798,-18.2854,-18.2901,-18.3127,-18.3215,-18.2283,-18.2282,-18.2281,0,0,-18.0725,-18.0748,-18.064,-18.1045,-18.113,-18.1156,-18.1375,-18.1242,-18.138,-18.1339,-18.1206,-18.1222,-18.1575,-18.1593,-18.1364,-18.1995,-18.1713,-18.1766,-18.1971,-18.2055,-18.2122,-18.211,-18.1042,0,0,0,0,0,-18.0366,-18.0745,-18.0647,-18.0704,-18.0959,-18.1211,-18.1242,-18.1144,-18.0947,-18.1123,-18.111,-18.0938,-18.1442,-18.1236,-18.1293,-18.1549,-18.2053,-18.2094,-18.2132,-18.2496,-18.2585,-18.2661,0,0,0,0,0,0,-18.0388,-18.0459,-18.0637,-18.0681,-18.0737,-18.1197,-18.0842,-18.0825,-18.0926,-18.0889,-18.0946,-18.094,-18.0857,-18.12,-18.1253,-18.1498,-18.1024,-18.2069,-18.2104,-18.2135,-18.2526,-18.26,-18.2663,0,0,0,0,0,-18.0405,-18.0461,-18.0897,-18.0675,-18.0724,-18.0683,-18.0827,-18.081,-18.0886,-18.0867,-18.0855,-18.0802,-18.0867,-18.0904,-18.1231,-18.1477,-18.0987,-18.1007,-18.2092,-18.2119,-18.2143,-18.2562,0,0,0,0,0,0,-18.0417,-18.0446,-18.0905,-18.0916,-18.0525,-18.0655,-18.0672,-18.0798,-18.0854,-18.0847,-18.0714,-18.0685,-18.0879,-18.0905,-18.0935,-18.1476,-18.0957,-18.0977,-18.099,-18.2112,-18.2134,-18.2153,0,0,0,0,0,0,-18.0414,-18.0457,-18.091,-18.0726,-18.0715,-18.063,-18.0646,-18.0907,-18.0858,-18.0698,-18.0674,-18.0701,-18.0832,-18.0908,-18.093,-18.1343,-18.0934,-18.0953,-18.0967,-18.0975,-18.213,-18.2147,0,0,0,0,0,0,-18.043,-18.0467,-18.0722,-18.0715,-18.0704,-18.0819,-18.0858,-18.1124,-18.0705,-18.0698,-18.0664,-18.0646,-18.0841,-18.086,-18.0928,-18.1333,-18.134,-18.0934,-18.0948,-18.0957,-18.0963,0,0,0,0,0,0,0,-18.0443,-18.0225,-18.084,-18.0705,-18.0694,-18.1017,-18.102,-18.1023,-18.0701,-18.0685,-18.0669,-18.0654,-18.0823,-18.0844,-18.0866,-18.1325,0,0,-18.0932,-18.0942,0,0,0,0,0,0,0,0,-18.0208,-18.0221,-18.0841,-18.0843,-18.0845,-18.1018,-18.102,-18.1022,-18.0698,-18.0685,-18.0672,-18.066,-18.0829,-18.0846,-18.0863,0,0,0,0,0,0,0,0,0,0,0,0,0,0,0,-18.0841,-18.0843,0,-18.1018,-18.102,-18.1022,-18.0696,-18.0686,-18.0675,-18.0665,-18.0833,-18.0848,-18.0862,0,0,0,0,0,0,0,0,0,0,0,0,0,0,0,0,0,0,0,0,0,0,0,0,0,0,0,0,0,0,0,0,0,0,0,0,0,0,0,0,0,0,0,0,0,0,0,0,0,0,0,0,0,0,0,0,0,0,0,0,0,0,0,0,0,0,0,0,0]}]]]